Time,TemperatureF,DewpointF,PressureIn,WindDirection,WindDirectionDegrees,WindSpeedMPH,WindSpeedGustMPH,Humidity,HourlyPrecipIn,Conditions,Clouds,dailyrainin,SoftwareType,DateUTC
2013-03-25 00:03:00,37.8,25.6,30.11,NW,315,2.2,3.4,61,0.00,,,0.00,WUHU216HW,2013-03-25 07:03:00,
2013-03-25 00:08:00,37.8,25.6,30.11,NW,315,3.8,4.9,61,0.00,,,0.00,WUHU216HW,2013-03-25 07:08:00,
2013-03-25 00:13:00,37.8,25.6,30.11,NNW,338,1.8,4.9,61,0.00,,,0.00,WUHU216HW,2013-03-25 07:13:00,
2013-03-25 00:18:00,37.8,25.6,30.10,NNW,338,2.0,2.7,61,0.00,,,0.00,WUHU216HW,2013-03-25 07:18:00,
2013-03-25 00:23:00,37.6,25.0,30.10,NNW,338,1.8,2.2,60,0.00,,,0.00,WUHU216HW,2013-03-25 07:23:00,
2013-03-25 00:28:00,37.4,24.8,30.11,NNW,338,2.2,2.9,60,0.00,,,0.00,WUHU216HW,2013-03-25 07:28:00,
2013-03-25 00:33:00,37.4,25.2,30.10,NNW,338,2.0,2.9,61,0.00,,,0.00,WUHU216HW,2013-03-25 07:33:00,
2013-03-25 00:38:00,37.3,25.0,30.10,NNW,338,2.7,2.7,61,0.00,,,0.00,WUHU216HW,2013-03-25 07:38:00,
2013-03-25 00:43:00,37.3,25.0,30.11,NNW,338,1.1,2.7,61,0.00,,,0.00,WUHU216HW,2013-03-25 07:43:00,
2013-03-25 00:48:00,37.1,24.9,30.11,NNW,338,1.1,2.5,61,0.00,,,0.00,WUHU216HW,2013-03-25 07:48:00,
2013-03-25 00:53:00,37.1,24.9,30.10,NW,315,1.1,2.5,61,0.00,,,0.00,WUHU216HW,2013-03-25 07:53:00,
2013-03-25 00:58:00,37.1,24.9,30.10,NW,315,0.7,2.5,61,0.00,,,0.00,WUHU216HW,2013-03-25 07:58:00,
2013-03-25 01:03:00,37.1,24.9,30.10,NNW,338,1.3,2.0,61,0.00,,,0.00,WUHU216HW,2013-03-25 08:03:00,
2013-03-25 01:08:00,36.9,24.8,30.10,NNW,338,1.1,2.0,61,0.00,,,0.00,WUHU216HW,2013-03-25 08:08:00,
2013-03-25 01:13:00,36.7,24.9,30.10,NNW,338,1.3,2.0,62,0.00,,,0.00,WUHU216HW,2013-03-25 08:13:00,
2013-03-25 01:18:00,36.5,24.8,30.10,North,0,0.9,2.5,62,0.00,,,0.00,WUHU216HW,2013-03-25 08:18:00,
2013-03-25 01:23:00,36.4,24.6,30.10,NNW,338,2.2,3.1,62,0.00,,,0.00,WUHU216HW,2013-03-25 08:23:00,
2013-03-25 01:28:00,36.2,24.5,30.10,NNW,338,2.7,3.1,62,0.00,,,0.00,WUHU216HW,2013-03-25 08:28:00,
2013-03-25 01:33:00,36.0,24.3,30.10,NNW,338,3.6,3.8,62,0.00,,,0.00,WUHU216HW,2013-03-25 08:33:00,
2013-03-25 01:38:00,36.0,24.7,30.10,NNW,338,1.1,3.8,63,0.00,,,0.00,WUHU216HW,2013-03-25 08:38:00,
2013-03-25 01:43:00,35.8,24.5,30.10,NNW,338,1.6,3.6,63,0.00,,,0.00,WUHU216HW,2013-03-25 08:43:00,
2013-03-25 01:48:00,35.8,24.5,30.10,NNW,338,2.0,2.2,63,0.00,,,0.00,WUHU216HW,2013-03-25 08:48:00,
2013-03-25 01:53:00,35.6,24.7,30.11,NNW,338,2.9,2.9,64,0.00,,,0.00,WUHU216HW,2013-03-25 08:53:00,
2013-03-25 01:58:00,35.6,24.7,30.10,NNW,338,1.8,2.9,64,0.00,,,0.00,WUHU216HW,2013-03-25 08:58:00,
2013-03-25 02:03:00,35.6,24.7,30.10,North,0,1.8,3.1,64,0.00,,,0.00,WUHU216HW,2013-03-25 09:03:00,
2013-03-25 02:08:00,35.6,24.7,30.10,North,0,1.1,3.1,64,0.00,,,0.00,WUHU216HW,2013-03-25 09:08:00,
2013-03-25 02:13:00,35.5,24.8,30.10,North,0,2.7,2.7,65,0.00,,,0.00,WUHU216HW,2013-03-25 09:13:00,
2013-03-25 02:18:00,35.3,24.7,30.10,North,0,2.5,2.7,65,0.00,,,0.00,WUHU216HW,2013-03-25 09:18:00,
2013-03-25 02:23:00,34.9,24.7,30.10,North,0,0.9,2.5,66,0.00,,,0.00,WUHU216HW,2013-03-25 09:23:00,
2013-03-25 02:28:00,34.7,24.8,30.10,NNE,23,1.8,1.8,67,0.00,,,0.00,WUHU216HW,2013-03-25 09:28:00,
2013-03-25 02:33:00,34.4,24.5,30.09,NNE,23,1.6,1.8,67,0.00,,,0.00,WUHU216HW,2013-03-25 09:33:00,
2013-03-25 02:38:00,34.2,24.7,30.09,NE,45,1.3,1.8,68,0.00,,,0.00,WUHU216HW,2013-03-25 09:38:00,
2013-03-25 02:43:00,33.7,24.8,30.09,NE,45,0.9,1.8,70,0.00,,,0.00,WUHU216HW,2013-03-25 09:43:00,
2013-03-25 02:48:00,33.5,24.7,30.09,NE,45,0.7,1.6,70,0.00,,,0.00,WUHU216HW,2013-03-25 09:48:00,
2013-03-25 02:53:00,32.9,24.2,30.09,NE,45,1.1,1.3,70,0.00,,,0.00,WUHU216HW,2013-03-25 09:53:00,
2013-03-25 02:58:00,32.8,24.4,30.09,NE,45,1.1,1.6,71,0.00,,,0.00,WUHU216HW,2013-03-25 09:58:00,
2013-03-25 03:03:00,32.9,24.6,30.09,NE,45,1.1,1.6,71,0.00,,,0.00,WUHU216HW,2013-03-25 10:03:00,
2013-03-25 03:08:00,32.9,24.2,30.09,NNE,23,0.4,1.6,70,0.00,,,0.00,WUHU216HW,2013-03-25 10:08:00,
2013-03-25 03:13:00,33.1,24.4,30.09,NNE,23,1.6,1.6,70,0.00,,,0.00,WUHU216HW,2013-03-25 10:13:00,
2013-03-25 03:18:00,33.3,24.6,30.08,NNE,23,1.1,1.6,70,0.00,,,0.00,WUHU216HW,2013-03-25 10:18:00,
2013-03-25 03:23:00,33.3,24.6,30.08,NNE,23,0.9,1.6,70,0.00,,,0.00,WUHU216HW,2013-03-25 10:23:00,
2013-03-25 03:28:00,33.1,24.4,30.08,NNE,23,1.8,1.8,70,0.00,,,0.00,WUHU216HW,2013-03-25 10:28:00,
2013-03-25 03:33:00,33.3,24.6,30.08,NNE,23,1.1,2.5,70,0.00,,,0.00,WUHU216HW,2013-03-25 10:33:00,
2013-03-25 03:38:00,33.5,24.7,30.08,NNE,23,1.3,2.5,70,0.00,,,0.00,WUHU216HW,2013-03-25 10:38:00,
2013-03-25 03:43:00,33.5,24.7,30.08,NE,45,1.1,1.3,70,0.00,,,0.00,WUHU216HW,2013-03-25 10:43:00,
2013-03-25 03:48:00,33.5,24.7,30.08,NE,45,0.0,1.1,70,0.00,,,0.00,WUHU216HW,2013-03-25 10:48:00,
2013-03-25 03:53:00,33.1,24.4,30.08,NE,45,0.0,0.7,70,0.00,,,0.00,WUHU216HW,2013-03-25 10:53:00,
2013-03-25 03:58:00,32.8,24.0,30.08,NE,45,0.7,0.7,70,0.00,,,0.00,WUHU216HW,2013-03-25 10:58:00,
2013-03-25 04:03:00,32.4,24.4,30.08,NE,45,0.9,1.3,72,0.00,,,0.00,WUHU216HW,2013-03-25 11:03:00,
2013-03-25 04:08:00,32.6,24.2,30.08,NNE,23,0.4,1.3,71,0.00,,,0.00,WUHU216HW,2013-03-25 11:08:00,
2013-03-25 04:13:00,32.6,24.6,30.08,NNE,23,0.0,1.3,72,0.00,,,0.00,WUHU216HW,2013-03-25 11:13:00,
2013-03-25 04:18:00,32.2,23.9,30.08,NNE,23,0.0,0.7,71,0.00,,,0.00,WUHU216HW,2013-03-25 11:18:00,
2013-03-25 04:23:00,32.0,24.0,30.08,NNE,23,0.0,0.0,72,0.00,,,0.00,WUHU216HW,2013-03-25 11:23:00,
2013-03-25 04:28:00,31.9,24.2,30.08,NNE,23,0.0,0.0,73,0.00,,,0.00,WUHU216HW,2013-03-25 11:28:00,
2013-03-25 04:33:00,31.7,24.0,30.08,NNE,23,0.9,0.9,73,0.00,,,0.00,WUHU216HW,2013-03-25 11:33:00,
2013-03-25 04:38:00,31.7,24.0,30.07,NNE,23,0.0,0.9,73,0.00,,,0.00,WUHU216HW,2013-03-25 11:38:00,
2013-03-25 04:43:00,31.7,23.7,30.08,NNE,23,0.2,0.2,72,0.00,,,0.00,WUHU216HW,2013-03-25 11:43:00,
2013-03-25 04:48:00,31.5,24.1,30.07,NNE,23,0.0,0.2,74,0.00,,,0.00,WUHU216HW,2013-03-25 11:48:00,
2013-03-25 04:53:00,31.5,23.9,30.08,NNE,23,0.0,0.0,73,0.00,,,0.00,WUHU216HW,2013-03-25 11:53:00,
2013-03-25 04:58:00,31.7,24.0,30.08,NNE,23,0.0,0.0,73,0.00,,,0.00,WUHU216HW,2013-03-25 11:58:00,
2013-03-25 05:03:00,31.7,24.7,30.07,NNE,23,0.4,0.4,75,0.00,,,0.00,WUHU216HW,2013-03-25 12:03:00,
2013-03-25 05:08:00,31.7,24.3,30.07,NNE,23,0.0,0.4,74,0.00,,,0.00,WUHU216HW,2013-03-25 12:08:00,
2013-03-25 05:13:00,31.7,24.0,30.07,NNE,23,0.0,0.4,73,0.00,,,0.00,WUHU216HW,2013-03-25 12:13:00,
2013-03-25 05:18:00,31.9,24.5,30.07,NNE,23,0.0,0.0,74,0.00,,,0.00,WUHU216HW,2013-03-25 12:18:00,
2013-03-25 05:23:00,31.7,24.7,30.07,NNE,23,0.4,0.7,75,0.00,,,0.00,WUHU216HW,2013-03-25 12:23:00,
2013-03-25 05:28:00,31.7,24.3,30.07,NNE,23,0.0,0.7,74,0.00,,,0.00,WUHU216HW,2013-03-25 12:28:00,
2013-03-25 05:33:00,31.9,24.5,30.07,NNE,23,0.0,0.4,74,0.00,,,0.00,WUHU216HW,2013-03-25 12:33:00,
2013-03-25 05:38:00,31.9,24.8,30.07,NNE,23,0.0,0.2,75,0.00,,,0.00,WUHU216HW,2013-03-25 12:38:00,
2013-03-25 05:43:00,31.9,24.5,30.07,NNE,23,0.0,0.2,74,0.00,,,0.00,WUHU216HW,2013-03-25 12:43:00,
2013-03-25 05:48:00,32.0,24.7,30.07,NNE,23,0.0,0.2,74,0.00,,,0.00,WUHU216HW,2013-03-25 12:48:00,
2013-03-25 05:53:00,31.9,24.2,30.07,NNE,23,0.4,0.4,73,0.00,,,0.00,WUHU216HW,2013-03-25 12:53:00,
2013-03-25 05:58:00,31.9,24.5,30.07,NNE,23,0.2,0.7,74,0.00,,,0.00,WUHU216HW,2013-03-25 12:58:00,
2013-03-25 06:03:00,31.9,24.2,30.08,NNE,23,0.0,0.7,73,0.00,,,0.00,WUHU216HW,2013-03-25 13:03:00,
2013-03-25 06:08:00,31.7,24.3,30.08,NNW,338,1.1,1.1,74,0.00,,,0.00,WUHU216HW,2013-03-25 13:08:00,
2013-03-25 06:13:00,31.5,24.1,30.08,NNW,338,0.0,1.1,74,0.00,,,0.00,WUHU216HW,2013-03-25 13:13:00,
2013-03-25 06:18:00,31.1,24.5,30.08,North,0,1.3,1.3,76,0.00,,,0.00,WUHU216HW,2013-03-25 13:18:00,
2013-03-25 06:23:00,31.0,24.3,30.07,North,0,0.0,1.3,76,0.00,,,0.00,WUHU216HW,2013-03-25 13:23:00,
2013-03-25 06:28:00,31.0,23.9,30.07,North,0,0.0,1.1,75,0.00,,,0.00,WUHU216HW,2013-03-25 13:28:00,
2013-03-25 06:33:00,30.8,24.1,30.07,NNE,23,0.0,1.1,76,0.00,,,0.00,WUHU216HW,2013-03-25 13:33:00,
2013-03-25 06:38:00,30.6,24.0,30.08,NNE,23,0.2,1.1,76,0.00,,,0.00,WUHU216HW,2013-03-25 13:38:00,
2013-03-25 06:43:00,30.8,24.4,30.08,NNE,23,0.2,0.9,77,0.00,,,0.00,WUHU216HW,2013-03-25 13:43:00,
2013-03-25 06:48:00,30.6,24.6,30.07,NNE,23,0.4,0.7,78,0.00,,,0.00,WUHU216HW,2013-03-25 13:48:00,
2013-03-25 06:53:00,30.4,24.0,30.07,NNE,23,0.4,0.7,77,0.00,,,0.00,WUHU216HW,2013-03-25 13:53:00,
2013-03-25 06:58:00,30.4,24.0,30.07,NNE,23,0.4,0.7,77,0.00,,,0.00,WUHU216HW,2013-03-25 13:58:00,
2013-03-25 07:03:00,30.2,24.2,30.07,NNE,23,0.0,0.7,78,0.00,,,0.00,WUHU216HW,2013-03-25 14:03:00,
2013-03-25 07:08:00,30.1,23.7,30.07,NNE,23,0.0,0.7,77,0.00,,,0.00,WUHU216HW,2013-03-25 14:08:00,
2013-03-25 07:13:00,29.9,23.5,30.07,NNE,23,0.2,0.2,77,0.00,,,0.00,WUHU216HW,2013-03-25 14:13:00,
2013-03-25 07:18:00,29.7,23.3,30.07,NNE,23,0.0,0.2,77,0.00,,,0.00,WUHU216HW,2013-03-25 14:18:00,
2013-03-25 07:23:00,29.5,23.8,30.07,NNE,23,0.4,0.7,79,0.00,,,0.00,WUHU216HW,2013-03-25 14:23:00,
2013-03-25 07:28:00,29.5,23.5,30.08,NNE,23,0.0,0.7,78,0.00,,,0.00,WUHU216HW,2013-03-25 14:28:00,
2013-03-25 07:33:00,29.9,24.1,30.08,NNE,23,0.2,0.2,79,0.00,,,0.00,WUHU216HW,2013-03-25 14:33:00,
2013-03-25 07:38:00,29.9,23.9,30.08,NNE,23,0.0,0.2,78,0.00,,,0.00,WUHU216HW,2013-03-25 14:38:00,
2013-03-25 07:43:00,30.2,24.2,30.08,NNE,23,0.4,0.4,78,0.00,,,0.00,WUHU216HW,2013-03-25 14:43:00,
2013-03-25 07:48:00,30.6,24.6,30.08,NNE,23,0.0,0.4,78,0.00,,,0.00,WUHU216HW,2013-03-25 14:48:00,
2013-03-25 07:53:00,31.0,24.9,30.08,NNE,23,0.0,0.4,78,0.00,,,0.00,WUHU216HW,2013-03-25 14:53:00,
2013-03-25 07:58:00,31.3,25.3,30.08,NNE,23,0.0,0.0,78,0.00,,,0.00,WUHU216HW,2013-03-25 14:58:00,
2013-03-25 08:03:00,31.9,25.8,30.08,NNE,23,0.2,0.4,78,0.00,,,0.00,WUHU216HW,2013-03-25 15:03:00,
2013-03-25 08:08:00,32.8,26.3,30.08,NNE,23,0.0,0.4,77,0.00,,,0.00,WUHU216HW,2013-03-25 15:08:00,
2013-03-25 08:13:00,33.3,26.5,30.07,NNE,23,0.0,0.4,76,0.00,,,0.00,WUHU216HW,2013-03-25 15:13:00,
2013-03-25 08:19:00,33.5,26.0,30.07,North,0,0.9,0.9,74,0.00,,,0.00,WUHU216HW,2013-03-25 15:19:00,
2013-03-25 08:24:00,33.7,26.2,30.07,NW,315,1.1,1.3,74,0.00,,,0.00,WUHU216HW,2013-03-25 15:24:00,
2013-03-25 08:29:00,34.0,26.2,30.07,WNW,293,1.6,1.6,73,0.00,,,0.00,WUHU216HW,2013-03-25 15:29:00,
2013-03-25 08:34:00,34.6,26.7,30.07,WNW,293,0.9,1.6,73,0.00,,,0.00,WUHU216HW,2013-03-25 15:34:00,
2013-03-25 08:39:00,34.9,26.7,30.07,WNW,293,2.2,2.2,72,0.00,,,0.00,WUHU216HW,2013-03-25 15:39:00,
2013-03-25 08:44:00,35.8,27.0,30.07,WNW,293,1.1,2.2,70,0.00,,,0.00,WUHU216HW,2013-03-25 15:44:00,
2013-03-25 08:49:00,36.5,27.7,30.07,WNW,293,0.2,1.8,70,0.00,,,0.00,WUHU216HW,2013-03-25 15:49:00,
2013-03-25 08:54:00,37.1,27.6,30.06,WNW,293,0.0,1.1,68,0.00,,,0.00,WUHU216HW,2013-03-25 15:54:00,
2013-03-25 08:59:00,37.4,27.5,30.07,SW,225,2.5,2.5,67,0.00,,,0.00,WUHU216HW,2013-03-25 15:59:00,
2013-03-25 09:04:00,37.4,26.4,30.07,WSW,248,2.5,2.5,64,0.00,,,0.00,WUHU216HW,2013-03-25 16:04:00,
2013-03-25 09:09:00,37.8,27.1,30.07,West,270,1.6,2.5,65,0.00,,,0.00,WUHU216HW,2013-03-25 16:09:00,
2013-03-25 09:14:00,39.4,27.8,30.07,NNW,338,2.5,3.1,63,0.00,,,0.00,WUHU216HW,2013-03-25 16:14:00,
2013-03-25 09:19:00,40.1,26.9,30.07,WNW,293,4.0,4.0,59,0.00,,,0.00,WUHU216HW,2013-03-25 16:19:00,
2013-03-25 09:24:00,39.6,26.4,30.07,NNW,338,2.5,5.4,59,0.00,,,0.00,WUHU216HW,2013-03-25 16:24:00,
2013-03-25 09:29:00,41.0,26.9,30.06,West,270,4.0,5.4,57,0.00,,,0.00,WUHU216HW,2013-03-25 16:29:00,
2013-03-25 09:34:00,42.3,27.2,30.06,NNE,23,2.5,4.0,55,0.00,,,0.00,WUHU216HW,2013-03-25 16:34:00,
2013-03-25 09:39:00,43.2,27.6,30.06,NE,45,2.2,3.1,54,0.00,,,0.00,WUHU216HW,2013-03-25 16:39:00,
2013-03-25 09:44:00,42.5,26.6,30.06,WNW,293,1.6,2.7,53,0.00,,,0.00,WUHU216HW,2013-03-25 16:44:00,
2013-03-25 09:49:00,41.8,26.3,30.06,NNW,338,2.0,3.1,54,0.00,,,0.00,WUHU216HW,2013-03-25 16:49:00,
2013-03-25 09:54:00,42.5,26.9,30.06,NNW,338,2.5,3.1,54,0.00,,,0.00,WUHU216HW,2013-03-25 16:54:00,
2013-03-25 09:59:00,43.0,27.0,30.06,NW,315,2.2,4.0,53,0.00,,,0.00,WUHU216HW,2013-03-25 16:59:00,
2013-03-25 10:04:00,42.1,26.7,30.06,NNW,338,4.3,4.3,54,0.00,,,0.00,WUHU216HW,2013-03-25 17:04:00,
2013-03-25 10:09:00,42.5,26.9,30.06,North,0,2.2,4.3,54,0.00,,,0.00,WUHU216HW,2013-03-25 17:09:00,
2013-03-25 10:14:00,42.3,25.9,30.06,NW,315,0.9,3.6,52,0.00,,,0.00,WUHU216HW,2013-03-25 17:14:00,
2013-03-25 10:19:00,42.3,26.7,30.06,East,90,2.5,2.5,54,0.00,,,0.00,WUHU216HW,2013-03-25 17:19:00,
2013-03-25 10:24:00,42.7,27.1,30.06,North,0,2.0,2.5,54,0.00,,,0.00,WUHU216HW,2013-03-25 17:24:00,
2013-03-25 10:29:00,43.6,27.6,30.06,North,0,1.3,2.5,53,0.00,,,0.00,WUHU216HW,2013-03-25 17:29:00,
2013-03-25 10:34:00,43.7,27.7,30.06,East,90,3.6,3.6,53,0.00,,,0.00,WUHU216HW,2013-03-25 17:34:00,
2013-03-25 10:39:00,44.1,28.0,30.05,ENE,68,1.6,3.8,53,0.00,,,0.00,WUHU216HW,2013-03-25 17:39:00,
2013-03-25 10:44:00,45.0,28.0,30.05,NNE,23,2.0,3.8,51,0.00,,,0.00,WUHU216HW,2013-03-25 17:44:00,
2013-03-25 10:49:00,44.5,27.9,30.05,South,180,0.2,3.4,52,0.00,,,0.00,WUHU216HW,2013-03-25 17:49:00,
2013-03-25 10:54:00,44.6,27.6,30.05,NE,45,1.6,3.4,51,0.00,,,0.00,WUHU216HW,2013-03-25 17:54:00,
2013-03-25 10:59:00,45.0,28.5,30.05,North,0,1.6,3.4,52,0.00,,,0.00,WUHU216HW,2013-03-25 17:59:00,
2013-03-25 11:04:00,45.7,28.6,30.04,WNW,293,2.7,2.7,51,0.00,,,0.00,WUHU216HW,2013-03-25 18:04:00,
2013-03-25 11:09:00,45.7,29.1,30.04,West,270,2.2,4.0,52,0.00,,,0.00,WUHU216HW,2013-03-25 18:09:00,
2013-03-25 11:14:00,45.7,29.1,30.04,WNW,293,2.2,4.0,52,0.00,,,0.00,WUHU216HW,2013-03-25 18:14:00,
2013-03-25 11:19:00,45.5,28.4,30.04,NNE,23,1.8,4.5,51,0.00,,,0.00,WUHU216HW,2013-03-25 18:19:00,
2013-03-25 11:24:00,45.9,28.4,30.04,East,90,2.5,4.5,50,0.00,,,0.00,WUHU216HW,2013-03-25 18:24:00,
2013-03-25 11:29:00,45.7,28.2,30.03,SW,225,0.9,4.0,50,0.00,,,0.00,WUHU216HW,2013-03-25 18:29:00,
2013-03-25 11:34:00,46.3,28.1,30.03,East,90,4.3,4.3,49,0.00,,,0.00,WUHU216HW,2013-03-25 18:34:00,
2013-03-25 11:39:00,45.7,28.2,30.04,East,90,0.7,4.7,50,0.00,,,0.00,WUHU216HW,2013-03-25 18:39:00,
2013-03-25 11:44:00,46.3,28.6,30.03,NNE,23,4.0,4.7,50,0.00,,,0.00,WUHU216HW,2013-03-25 18:44:00,
2013-03-25 11:49:00,47.0,28.7,30.03,North,0,4.3,4.7,49,0.00,,,0.00,WUHU216HW,2013-03-25 18:49:00,
2013-03-25 11:54:00,46.8,28.1,30.03,NNE,23,2.9,7.6,48,0.00,,,0.00,WUHU216HW,2013-03-25 18:54:00,
2013-03-25 11:59:00,46.4,28.8,30.03,NNE,23,0.9,7.6,50,0.00,,,0.00,WUHU216HW,2013-03-25 18:59:00,
2013-03-25 12:04:00,47.2,28.9,30.02,SE,135,0.2,4.7,49,0.00,,,0.00,WUHU216HW,2013-03-25 19:04:00,
2013-03-25 12:09:00,47.2,28.4,30.02,NE,45,4.5,4.9,48,0.00,,,0.00,WUHU216HW,2013-03-25 19:09:00,
2013-03-25 12:14:00,47.2,28.9,30.02,NNW,338,2.9,4.9,49,0.00,,,0.00,WUHU216HW,2013-03-25 19:14:00,
2013-03-25 12:19:00,47.9,29.5,30.02,North,0,2.5,4.5,49,0.00,,,0.00,WUHU216HW,2013-03-25 19:19:00,
2013-03-25 12:24:00,48.2,29.3,30.02,WNW,293,3.6,4.0,48,0.00,,,0.00,WUHU216HW,2013-03-25 19:24:00,
2013-03-25 12:29:00,48.4,29.5,30.02,North,0,4.0,4.0,48,0.00,,,0.00,WUHU216HW,2013-03-25 19:29:00,
2013-03-25 12:34:00,48.6,29.2,30.01,NNW,338,4.5,5.4,47,0.00,,,0.00,WUHU216HW,2013-03-25 19:34:00,
2013-03-25 12:39:00,48.2,29.3,30.01,North,0,4.5,5.4,48,0.00,,,0.00,WUHU216HW,2013-03-25 19:39:00,
2013-03-25 12:44:00,48.8,29.4,30.01,East,90,2.5,4.7,47,0.00,,,0.00,WUHU216HW,2013-03-25 19:44:00,
2013-03-25 12:49:00,48.6,28.6,30.01,North,0,4.0,4.7,46,0.00,,,0.00,WUHU216HW,2013-03-25 19:49:00,
2013-03-25 12:54:00,48.4,29.5,30.01,NNE,23,4.7,6.9,48,0.00,,,0.00,WUHU216HW,2013-03-25 19:54:00,
2013-03-25 12:59:00,48.2,28.8,30.01,NNE,23,3.6,6.9,47,0.00,,,0.00,WUHU216HW,2013-03-25 19:59:00,
2013-03-25 13:04:00,48.1,29.2,30.01,North,0,5.6,5.6,48,0.00,,,0.00,WUHU216HW,2013-03-25 20:04:00,
2013-03-25 13:09:00,48.1,29.2,30.00,NE,45,4.5,7.4,48,0.00,,,0.00,WUHU216HW,2013-03-25 20:09:00,
2013-03-25 13:14:00,48.6,29.7,30.00,WNW,293,2.9,7.4,48,0.00,,,0.00,WUHU216HW,2013-03-25 20:14:00,
2013-03-25 13:19:00,49.1,29.7,30.00,North,0,4.9,4.9,47,0.00,,,0.00,WUHU216HW,2013-03-25 20:19:00,
2013-03-25 13:24:00,49.9,29.8,30.00,NNW,338,5.4,5.4,46,0.00,,,0.00,WUHU216HW,2013-03-25 20:24:00,
2013-03-25 13:29:00,50.0,29.4,30.00,North,0,4.7,6.0,45,0.00,,,0.00,WUHU216HW,2013-03-25 20:29:00,
2013-03-25 13:34:00,50.0,29.4,30.00,WNW,293,4.0,6.0,45,0.00,,,0.00,WUHU216HW,2013-03-25 20:34:00,
2013-03-25 13:39:00,49.7,29.6,30.00,NNW,338,3.6,4.9,46,0.00,,,0.00,WUHU216HW,2013-03-25 20:39:00,
2013-03-25 13:44:00,50.0,29.4,29.99,NW,315,5.1,5.1,45,0.00,,,0.00,WUHU216HW,2013-03-25 20:44:00,
2013-03-25 13:49:00,50.0,29.4,29.99,NW,315,5.4,6.3,45,0.00,,,0.00,WUHU216HW,2013-03-25 20:49:00,
2013-03-25 13:54:00,49.7,29.1,29.99,North,0,8.7,8.7,45,0.00,,,0.00,WUHU216HW,2013-03-25 20:54:00,
2013-03-25 13:59:00,49.7,29.6,29.98,North,0,5.6,8.7,46,0.00,,,0.00,WUHU216HW,2013-03-25 20:59:00,
2013-03-25 14:04:00,49.9,30.3,29.99,NNW,338,4.0,8.7,47,0.00,,,0.00,WUHU216HW,2013-03-25 21:04:00,
2013-03-25 14:09:00,49.9,29.8,29.99,NNW,338,4.7,5.4,46,0.00,,,0.00,WUHU216HW,2013-03-25 21:09:00,
2013-03-25 14:14:00,49.9,29.8,29.98,NNW,338,6.3,6.5,46,0.00,,,0.00,WUHU216HW,2013-03-25 21:14:00,
2013-03-25 14:19:00,49.9,29.8,29.98,North,0,2.2,6.5,46,0.00,,,0.00,WUHU216HW,2013-03-25 21:19:00,
2013-03-25 14:24:00,50.0,30.0,29.98,NW,315,5.8,6.3,46,0.00,,,0.00,WUHU216HW,2013-03-25 21:24:00,
2013-03-25 14:29:00,49.7,30.3,29.97,NNW,338,3.4,5.8,47,0.00,,,0.00,WUHU216HW,2013-03-25 21:29:00,
2013-03-25 14:34:00,49.9,29.8,29.97,WNW,293,4.5,5.8,46,0.00,,,0.00,WUHU216HW,2013-03-25 21:34:00,
2013-03-25 14:39:00,50.0,30.0,29.97,North,0,3.6,4.5,46,0.00,,,0.00,WUHU216HW,2013-03-25 21:39:00,
2013-03-25 14:44:00,50.0,30.0,29.97,NNW,338,6.0,6.0,46,0.00,,,0.00,WUHU216HW,2013-03-25 21:44:00,
2013-03-25 14:49:00,50.4,29.8,29.98,NNW,338,3.4,6.0,45,0.00,,,0.00,WUHU216HW,2013-03-25 21:49:00,
2013-03-25 14:54:00,50.4,30.3,29.98,WNW,293,2.7,6.0,46,0.00,,,0.00,WUHU216HW,2013-03-25 21:54:00,
2013-03-25 14:59:00,50.6,29.9,29.97,North,0,5.8,5.8,45,0.00,,,0.00,WUHU216HW,2013-03-25 21:59:00,
2013-03-25 15:04:00,50.4,29.8,29.97,NW,315,2.7,5.8,45,0.00,,,0.00,WUHU216HW,2013-03-25 22:04:00,
2013-03-25 15:09:00,50.4,30.3,29.97,NNW,338,3.4,5.8,46,0.00,,,0.00,WUHU216HW,2013-03-25 22:09:00,
2013-03-25 15:14:00,50.4,30.3,29.97,NNW,338,5.1,5.1,46,0.00,,,0.00,WUHU216HW,2013-03-25 22:14:00,
2013-03-25 15:19:00,50.4,30.3,29.97,NW,315,3.6,5.1,46,0.00,,,0.00,WUHU216HW,2013-03-25 22:19:00,
2013-03-25 15:24:00,50.6,30.5,29.96,WNW,293,2.2,5.1,46,0.00,,,0.00,WUHU216HW,2013-03-25 22:24:00,
2013-03-25 15:29:00,50.6,30.5,29.96,North,0,4.0,5.8,46,0.00,,,0.00,WUHU216HW,2013-03-25 22:29:00,
2013-03-25 15:34:00,50.4,30.9,29.96,North,0,3.1,7.6,47,0.00,,,0.00,WUHU216HW,2013-03-25 22:34:00,
2013-03-25 15:39:00,50.2,30.2,29.96,NNW,338,8.3,8.3,46,0.00,,,0.00,WUHU216HW,2013-03-25 22:39:00,
2013-03-25 15:44:00,50.4,30.3,29.95,NNW,338,5.1,8.3,46,0.00,,,0.00,WUHU216HW,2013-03-25 22:44:00,
2013-03-25 15:49:00,50.6,31.1,29.96,North,0,3.8,7.2,47,0.00,,,0.00,WUHU216HW,2013-03-25 22:49:00,
2013-03-25 15:54:00,50.8,30.6,29.96,North,0,3.1,5.1,46,0.00,,,0.00,WUHU216HW,2013-03-25 22:54:00,
2013-03-25 15:59:00,50.8,31.2,29.95,NNW,338,2.5,4.5,47,0.00,,,0.00,WUHU216HW,2013-03-25 22:59:00,
2013-03-25 16:04:00,51.1,31.5,29.95,NW,315,5.8,6.3,47,0.00,,,0.00,WUHU216HW,2013-03-25 23:04:00,
2013-03-25 16:09:00,51.5,31.3,29.95,North,0,3.8,6.3,46,0.00,,,0.00,WUHU216HW,2013-03-25 23:09:00,
2013-03-25 16:14:00,51.5,31.3,29.95,NNW,338,4.5,5.8,46,0.00,,,0.00,WUHU216HW,2013-03-25 23:14:00,
2013-03-25 16:19:00,51.5,31.3,29.96,NNW,338,2.5,6.3,46,0.00,,,0.00,WUHU216HW,2013-03-25 23:19:00,
2013-03-25 16:24:00,51.7,31.4,29.95,North,0,1.3,6.3,46,0.00,,,0.00,WUHU216HW,2013-03-25 23:24:00,
2013-03-25 16:29:00,51.8,31.1,29.95,NNW,338,4.7,4.7,45,0.00,,,0.00,WUHU216HW,2013-03-25 23:29:00,
2013-03-25 16:34:00,51.5,31.3,29.95,NW,315,2.9,4.7,46,0.00,,,0.00,WUHU216HW,2013-03-25 23:34:00,
2013-03-25 16:39:00,51.3,31.2,29.95,NNW,338,5.4,5.4,46,0.00,,,0.00,WUHU216HW,2013-03-25 23:39:00,
2013-03-25 16:44:00,51.1,31.5,29.95,North,0,4.7,6.5,47,0.00,,,0.00,WUHU216HW,2013-03-25 23:44:00,
2013-03-25 16:49:00,51.1,31.0,29.95,North,0,3.1,6.5,46,0.00,,,0.00,WUHU216HW,2013-03-25 23:49:00,
2013-03-25 16:54:00,51.5,31.3,29.95,NW,315,7.4,7.4,46,0.00,,,0.00,WUHU216HW,2013-03-25 23:54:00,
2013-03-25 16:59:00,51.5,31.3,29.95,NNW,338,4.7,7.4,46,0.00,,,0.00,WUHU216HW,2013-03-25 23:59:00,
2013-03-25 17:04:00,51.5,31.3,29.95,NNW,338,3.4,6.9,46,0.00,,,0.00,WUHU216HW,2013-03-26 00:04:00,
2013-03-25 17:09:00,51.5,31.3,29.95,NNW,338,6.0,6.9,46,0.00,,,0.00,WUHU216HW,2013-03-26 00:09:00,
2013-03-25 17:14:00,51.5,31.3,29.94,NW,315,5.4,6.0,46,0.00,,,0.00,WUHU216HW,2013-03-26 00:14:00,
2013-03-25 17:19:00,51.5,31.9,29.94,North,0,3.4,6.7,47,0.00,,,0.00,WUHU216HW,2013-03-26 00:19:00,
2013-03-25 17:24:00,51.1,31.0,29.94,NNW,338,5.8,6.7,46,0.00,,,0.00,WUHU216HW,2013-03-26 00:24:00,
2013-03-25 17:29:00,50.8,30.6,29.94,North,0,6.0,6.0,46,0.00,,,0.00,WUHU216HW,2013-03-26 00:29:00,
2013-03-25 17:34:00,50.6,31.1,29.94,NNW,338,4.0,6.0,47,0.00,,,0.00,WUHU216HW,2013-03-26 00:34:00,
2013-03-25 17:39:00,50.4,31.4,29.94,NW,315,3.8,6.3,48,0.00,,,0.00,WUHU216HW,2013-03-26 00:39:00,
2013-03-25 17:44:00,50.4,31.4,29.94,NNW,338,4.0,6.3,48,0.00,,,0.00,WUHU216HW,2013-03-26 00:44:00,
2013-03-25 17:49:00,50.4,31.4,29.94,NNW,338,2.5,6.7,48,0.00,,,0.00,WUHU216HW,2013-03-26 00:49:00,
2013-03-25 17:54:00,50.4,31.4,29.94,NNW,338,4.7,6.7,48,0.00,,,0.00,WUHU216HW,2013-03-26 00:54:00,
2013-03-25 17:59:00,50.4,31.4,29.94,North,0,5.4,7.6,48,0.00,,,0.00,WUHU216HW,2013-03-26 00:59:00,
2013-03-25 18:04:00,50.4,31.4,29.93,NNW,338,6.3,8.7,48,0.00,,,0.00,WUHU216HW,2013-03-26 01:04:00,
2013-03-25 18:09:00,50.4,31.4,29.93,NW,315,2.5,8.7,48,0.00,,,0.00,WUHU216HW,2013-03-26 01:09:00,
2013-03-25 18:14:00,50.4,30.9,29.94,NNW,338,3.8,5.8,47,0.00,,,0.00,WUHU216HW,2013-03-26 01:14:00,
2013-03-25 18:19:00,50.2,31.2,29.93,NW,315,4.5,5.6,48,0.00,,,0.00,WUHU216HW,2013-03-26 01:19:00,
2013-03-25 18:24:00,50.0,31.2,29.94,North,0,3.6,4.5,48,0.00,,,0.00,WUHU216HW,2013-03-26 01:24:00,
2013-03-25 18:29:00,50.0,31.2,29.94,NNW,338,2.9,4.0,48,0.00,,,0.00,WUHU216HW,2013-03-26 01:29:00,
2013-03-25 18:34:00,50.0,31.2,29.94,NNW,338,3.8,3.8,48,0.00,,,0.00,WUHU216HW,2013-03-26 01:34:00,
2013-03-25 18:39:00,49.9,31.0,29.94,North,0,4.5,5.4,48,0.00,,,0.00,WUHU216HW,2013-03-26 01:39:00,
2013-03-25 18:44:00,49.5,31.2,29.94,North,0,5.1,5.4,49,0.00,,,0.00,WUHU216HW,2013-03-26 01:44:00,
2013-03-25 18:49:00,49.3,31.0,29.94,NNW,338,4.0,5.1,49,0.00,,,0.00,WUHU216HW,2013-03-26 01:49:00,
2013-03-25 18:54:00,49.1,30.8,29.94,WNW,293,3.4,6.5,49,0.00,,,0.00,WUHU216HW,2013-03-26 01:54:00,
2013-03-25 18:59:00,48.8,31.0,29.93,North,0,3.8,6.7,50,0.00,,,0.00,WUHU216HW,2013-03-26 01:59:00,
2013-03-25 19:04:00,48.6,30.8,29.93,NNW,338,2.7,6.7,50,0.00,,,0.00,WUHU216HW,2013-03-26 02:04:00,
2013-03-25 19:09:00,48.2,30.4,29.93,NNE,23,2.2,6.0,50,0.00,,,0.00,WUHU216HW,2013-03-26 02:09:00,
2013-03-25 19:14:00,47.9,30.6,29.94,NNW,338,6.3,6.3,51,0.00,,,0.00,WUHU216HW,2013-03-26 02:14:00,
2013-03-25 19:19:00,47.7,30.4,29.94,NNW,338,4.5,6.9,51,0.00,,,0.00,WUHU216HW,2013-03-26 02:19:00,
2013-03-25 19:24:00,47.5,30.3,29.94,NNW,338,4.9,6.9,51,0.00,,,0.00,WUHU216HW,2013-03-26 02:24:00,
2013-03-25 19:29:00,47.2,30.3,29.94,NNW,338,4.0,6.3,52,0.00,,,0.00,WUHU216HW,2013-03-26 02:29:00,
2013-03-25 19:34:00,47.2,30.3,29.94,NNW,338,4.7,6.3,52,0.00,,,0.00,WUHU216HW,2013-03-26 02:34:00,
2013-03-25 19:39:00,47.0,30.3,29.94,North,0,5.6,9.2,52,0.00,,,0.00,WUHU216HW,2013-03-26 02:39:00,
2013-03-25 19:44:00,47.0,30.3,29.93,NNW,338,4.0,9.2,52,0.00,,,0.00,WUHU216HW,2013-03-26 02:44:00,
2013-03-25 19:49:00,46.8,30.1,29.94,NNW,338,4.3,5.8,52,0.00,,,0.00,WUHU216HW,2013-03-26 02:49:00,
2013-03-25 19:54:00,46.6,30.3,29.94,NNW,338,5.4,5.4,53,0.00,,,0.00,WUHU216HW,2013-03-26 02:54:00,
2013-03-25 19:59:00,46.6,30.3,29.94,North,0,2.7,5.4,53,0.00,,,0.00,WUHU216HW,2013-03-26 02:59:00,
2013-03-25 20:04:00,46.4,30.2,29.94,NW,315,3.4,5.4,53,0.00,,,0.00,WUHU216HW,2013-03-26 03:04:00,
2013-03-25 20:09:00,46.3,30.0,29.95,WNW,293,2.2,3.8,53,0.00,,,0.00,WUHU216HW,2013-03-26 03:09:00,
2013-03-25 20:14:00,46.1,29.8,29.94,North,0,4.3,4.7,53,0.00,,,0.00,WUHU216HW,2013-03-26 03:14:00,
2013-03-25 20:19:00,45.9,29.7,29.94,NNW,338,4.7,5.1,53,0.00,,,0.00,WUHU216HW,2013-03-26 03:19:00,
2013-03-25 20:24:00,45.7,29.5,29.94,NW,315,6.7,6.7,53,0.00,,,0.00,WUHU216HW,2013-03-26 03:24:00,
2013-03-25 20:29:00,45.7,30.0,29.94,NNW,338,3.4,6.7,54,0.00,,,0.00,WUHU216HW,2013-03-26 03:29:00,
2013-03-25 20:34:00,45.5,29.3,29.95,NNW,338,5.4,5.4,53,0.00,,,0.00,WUHU216HW,2013-03-26 03:34:00,
2013-03-25 20:39:00,45.5,29.8,29.95,NW,315,2.7,5.4,54,0.00,,,0.00,WUHU216HW,2013-03-26 03:39:00,
2013-03-25 20:44:00,45.5,29.8,29.95,North,0,4.0,5.4,54,0.00,,,0.00,WUHU216HW,2013-03-26 03:44:00,
2013-03-25 20:49:00,45.4,29.6,29.95,NNW,338,5.4,5.4,54,0.00,,,0.00,WUHU216HW,2013-03-26 03:49:00,
2013-03-25 20:54:00,45.4,29.6,29.95,North,0,3.4,6.3,54,0.00,,,0.00,WUHU216HW,2013-03-26 03:54:00,
2013-03-25 20:59:00,45.4,29.6,29.95,North,0,4.7,6.3,54,0.00,,,0.00,WUHU216HW,2013-03-26 03:59:00,
2013-03-25 21:04:00,45.2,29.4,29.95,North,0,4.0,4.7,54,0.00,,,0.00,WUHU216HW,2013-03-26 04:04:00,
2013-03-25 21:09:00,45.2,29.4,29.95,NNW,338,1.6,4.7,54,0.00,,,0.00,WUHU216HW,2013-03-26 04:09:00,
2013-03-25 21:14:00,45.2,29.4,29.96,NW,315,2.5,4.3,54,0.00,,,0.00,WUHU216HW,2013-03-26 04:14:00,
2013-03-25 21:19:00,45.0,29.4,29.96,WNW,293,1.8,2.9,54,0.00,,,0.00,WUHU216HW,2013-03-26 04:19:00,
2013-03-25 21:24:00,45.0,29.8,29.96,NW,315,0.9,2.5,55,0.00,,,0.00,WUHU216HW,2013-03-26 04:24:00,
2013-03-25 21:29:00,44.8,29.6,29.97,NNW,338,2.5,2.5,55,0.00,,,0.00,WUHU216HW,2013-03-26 04:29:00,
2013-03-25 21:34:00,44.6,29.0,29.97,NNW,338,2.2,2.5,54,0.00,,,0.00,WUHU216HW,2013-03-26 04:34:00,
2013-03-25 21:39:00,44.6,29.0,29.97,WNW,293,2.0,5.1,54,0.00,,,0.00,WUHU216HW,2013-03-26 04:39:00,
2013-03-25 21:44:00,44.6,29.0,29.97,NW,315,3.4,5.1,54,0.00,,,0.00,WUHU216HW,2013-03-26 04:44:00,
2013-03-25 21:49:00,44.5,28.8,29.97,NNW,338,2.7,4.7,54,0.00,,,0.00,WUHU216HW,2013-03-26 04:49:00,
2013-03-25 21:54:00,44.5,28.8,29.97,NNW,338,2.7,4.0,54,0.00,,,0.00,WUHU216HW,2013-03-26 04:54:00,
2013-03-25 21:59:00,44.3,28.6,29.97,NNW,338,1.8,2.9,54,0.00,,,0.00,WUHU216HW,2013-03-26 04:59:00,
2013-03-25 22:04:00,44.3,28.6,29.97,NW,315,4.3,4.3,54,0.00,,,0.00,WUHU216HW,2013-03-26 05:04:00,
2013-03-25 22:09:00,44.3,29.1,29.97,North,0,2.2,4.3,55,0.00,,,0.00,WUHU216HW,2013-03-26 05:09:00,
2013-03-25 22:14:00,44.3,29.1,29.97,NNW,338,2.9,4.0,55,0.00,,,0.00,WUHU216HW,2013-03-26 05:14:00,
2013-03-25 22:19:00,44.3,28.6,29.97,North,0,4.7,4.7,54,0.00,,,0.00,WUHU216HW,2013-03-26 05:19:00,
2013-03-25 22:24:00,44.3,28.6,29.97,NNW,338,3.4,4.7,54,0.00,,,0.00,WUHU216HW,2013-03-26 05:24:00,
2013-03-25 22:29:00,44.3,29.1,29.97,North,0,3.1,4.0,55,0.00,,,0.00,WUHU216HW,2013-03-26 05:29:00,
2013-03-25 22:34:00,44.1,28.9,29.97,NNW,338,3.1,3.4,55,0.00,,,0.00,WUHU216HW,2013-03-26 05:34:00,
2013-03-25 22:39:00,44.1,28.9,29.98,NW,315,1.8,3.1,55,0.00,,,0.00,WUHU216HW,2013-03-26 05:39:00,
2013-03-25 22:44:00,43.9,28.7,29.98,NNW,338,2.7,2.9,55,0.00,,,0.00,WUHU216HW,2013-03-26 05:44:00,
2013-03-25 22:49:00,43.9,28.7,29.98,NNW,338,2.0,3.4,55,0.00,,,0.00,WUHU216HW,2013-03-26 05:49:00,
2013-03-25 22:54:00,43.9,28.7,29.98,North,0,1.8,3.4,55,0.00,,,0.00,WUHU216HW,2013-03-26 05:54:00,
2013-03-25 22:59:00,43.7,29.0,29.98,NNW,338,1.1,2.7,56,0.00,,,0.00,WUHU216HW,2013-03-26 05:59:00,
2013-03-25 23:04:00,43.7,29.0,29.98,NNW,338,0.9,2.9,56,0.00,,,0.00,WUHU216HW,2013-03-26 06:04:00,
2013-03-25 23:09:00,43.7,29.0,29.98,NNW,338,1.8,2.9,56,0.00,,,0.00,WUHU216HW,2013-03-26 06:09:00,
2013-03-25 23:14:00,43.6,28.8,29.98,NNW,338,2.5,2.5,56,0.00,,,0.00,WUHU216HW,2013-03-26 06:14:00,
2013-03-25 23:19:00,43.6,28.8,29.98,WNW,293,1.3,2.5,56,0.00,,,0.00,WUHU216HW,2013-03-26 06:19:00,
2013-03-25 23:24:00,43.6,28.8,29.98,NNW,338,2.0,2.5,56,0.00,,,0.00,WUHU216HW,2013-03-26 06:24:00,
2013-03-25 23:29:00,43.6,29.3,29.98,NNW,338,1.8,3.8,57,0.00,,,0.00,WUHU216HW,2013-03-26 06:29:00,
2013-03-25 23:34:00,43.6,29.3,29.98,NNW,338,2.0,3.8,57,0.00,,,0.00,WUHU216HW,2013-03-26 06:34:00,
2013-03-25 23:39:00,43.4,29.1,29.98,NW,315,2.0,3.1,57,0.00,,,0.00,WUHU216HW,2013-03-26 06:39:00,
2013-03-25 23:44:00,43.4,29.1,29.98,North,0,2.5,2.9,57,0.00,,,0.00,WUHU216HW,2013-03-26 06:44:00,
2013-03-25 23:49:00,43.4,29.1,29.98,WNW,293,3.6,3.6,57,0.00,,,0.00,WUHU216HW,2013-03-26 06:49:00,
2013-03-25 23:54:00,43.4,29.1,29.98,North,0,2.9,3.6,57,0.00,,,0.00,WUHU216HW,2013-03-26 06:54:00,
2013-03-25 23:59:00,43.2,28.9,29.98,NNW,338,2.9,3.8,57,0.00,,,0.00,WUHU216HW,2013-03-26 06:59:00,